This is the latest recevied weather packets stored in our database for station/object K5MGY. If no packets are shown the sender has not sent any weather packets the latest 1 day(s).
| Time | Temp. | Humidity | Pressure | Rain* | Wind** | Luminosity | Snow |
|---|---|---|---|---|---|---|---|
| 1777977719 | 21.11° C | 86% | 1028.1 hPa | 0 mm | 1.79 m/s, 147° | 0 W/m² | - |
| 1777977415 | 21.11° C | 85% | 1028 hPa | 0 mm | 0.89 m/s, 158° | 0 W/m² | - |
| 1777977113 | 21.67° C | 85% | 1027.9 hPa | 0 mm | 0.89 m/s, 204° | 0 W/m² | - |
| 1777976811 | 21.67° C | 85% | 1028.1 hPa | 0 mm | 0.89 m/s, 227° | 0 W/m² | - |
| 1777976508 | 21.67° C | 84% | 1028 hPa | 0 mm | 0.45 m/s, 205° | 0 W/m² | - |
| 1777976207 | 21.67° C | 84% | 1028.1 hPa | 0 mm | 0.89 m/s, 178° | 0 W/m² | - |
| 1777975903 | 21.67° C | 84% | 1028.3 hPa | 0 mm | 0.89 m/s, 231° | 0 W/m² | - |
| 1777975599 | 21.67° C | 84% | 1028.3 hPa | 0 mm | 0.45 m/s, 209° | 0 W/m² | - |
| 1777975296 | 21.67° C | 84% | 1028.1 hPa | 0 mm | 2.68 m/s, 203° | 0 W/m² | - |
| 1777974992 | 21.67° C | 83% | 1028 hPa | 0 mm | 1.34 m/s, 270° | 0 W/m² | - |
| 1777974689 | 21.67° C | 83% | 1028.1 hPa | 0 mm | 0.89 m/s, 169° | 0 W/m² | - |
| 1777974386 | 21.67° C | 83% | 1028.4 hPa | 0 mm | 1.79 m/s, 109° | 0 W/m² | - |
| 1777974082 | 21.67° C | 83% | 1028.5 hPa | 0 mm | 1.34 m/s, 141° | 0 W/m² | - |
| 1777973778 | 21.67° C | 83% | 1028.2 hPa | 0 mm | 0.45 m/s, 213° | 0 W/m² | - |
| 1777973475 | 21.67° C | 83% | 1028.5 hPa | 0 mm | 1.34 m/s, 253° | 0 W/m² | - |
| 1777973173 | 21.67° C | 83% | 1028.4 hPa | 0 mm | 0.89 m/s, 213° | 0 W/m² | - |
| 1777972872 | 21.67° C | 84% | 1028.5 hPa | 0 mm | 1.79 m/s, 257° | 0 W/m² | - |
| 1777972568 | 21.67° C | 84% | 1028.7 hPa | 0 mm | 0.89 m/s, 172° | 0 W/m² | - |
| 1777972266 | 21.67° C | 84% | 1028.5 hPa | 0 mm | 0.89 m/s, 172° | 0 W/m² | - |
| 1777971964 | 21.67° C | 84% | 1028.8 hPa | 0 mm | 0.89 m/s, 197° | 0 W/m² | - |
| 1777971662 | 21.67° C | 84% | 1028.6 hPa | 0 mm | 2.24 m/s, 188° | 0 W/m² | - |
| 1777971358 | 21.67° C | 84% | 1028.7 hPa | 0 mm | 1.79 m/s, 218° | 0 W/m² | - |
| 1777971057 | 21.67° C | 84% | 1028.4 hPa | 0 mm | 1.79 m/s, 232° | 0 W/m² | - |
| 1777970755 | 21.67° C | 84% | 1028.5 hPa | 0 mm | 1.79 m/s, 219° | 0 W/m² | - |
| 1777970453 | 21.67° C | 84% | 1028.6 hPa | 0 mm | 1.34 m/s, 162° | 0 W/m² | - |
* Rain latest hour (hover to see other rain measurements)
** Current wind speed in m/s (hover to see current wind gust speed)